Regional Weather Roundup
Issued by NWS Charleston, SC

Current Version | Previous Version | Graphics & Text | Print | Product List | Glossary On
Versions: 1 2 3 4 5 6 7 8 9 10 11 12 13 14 15 16 17 18 19 20 21 22 23 24 25 26 27 28 29 30 31 32 33 34 35 36 37 38 39 40 41 42 43 44 45 46 47 48 49 50
000
ASUS42 KCHS 240412
RWRCHS

Regional Weather Roundup
National Weather Service Charleston SC
1100 PM EST TUE JAN 23 2018

NOTE: "fair" indicates few or no clouds below 12,000 feet with no
significant weather and/or obstructions to visibility.

Not all stations are quality controlled. Use data with caution,
especially dewpoint observations.

SCZ027-030-031-034>040-042>050-240500-
...Southeast South Carolina...

CITY           SKY/WX    TMP DP  RH WIND       PRES   REMARKS
N Charleston   FAIR      56  33  42 NW9       30.04R
Waterfront Prk   N/A     58  32  37 W6        29.90R
Mount Pleasant FAIR      55  34  44 W9G16     30.04S
Johns Island   FAIR      55  34  44 W10       30.05R
Pinopolis        N/A     55  37  50 W13       29.95R
Moncks Corner  FAIR      52  30  43 CALM      30.04R
Summerville    FAIR      54  32  43 W8        30.06R
Beaufort MCAS  FAIR      54  33  45 W6        30.06S
Beaufort Arpt  FAIR      54  32  43 W8G18     30.06S
Hilton Head Is FAIR      57  30  35 VRB7G14   30.07R
Walterboro     FAIR      50  32  50 W9        30.07R
Allendale      FAIR      50  32  50 CALM      30.07R

...Southern Midlands and Pee Dee...

CITY           SKY/WX    TMP DP  RH WIND       PRES   REMARKS
Georgetown     FAIR      54  32  43 W8        30.03R
Kingstree      FAIR      52  30  43 W9        30.03R
Orangeburg     FAIR      51  31  46 W8        30.06R
Barnwell         N/A     52  34  50 W6        30.08R
Aiken          FAIR      45  32  61 W7        30.10R
Manning        FAIR     N/A N/A N/A MISG      30.04R
Columbia       FAIR      52  33  48 W14       30.04R
Sumter         FAIR      51  31  45 W14       30.01R
Florence       FAIR      53  32  44 W14       30.01R
Myrtle Beach   FAIR      55  33  43 W8        30.02R
N Myrtle Beach FAIR      56  33  42 W8        29.99R

$$

GAZ063-065-086>088-099>101-113>116-118-119-134>141-150-240500-
...Southeast Georgia...

CITY           SKY/WX    TMP DP  RH WIND       PRES   REMARKS
Savannah Arpt  FAIR      54  32  43 NW8       30.08R
Hunter AAF     FAIR      54  31  40 W9        30.06R
Fort Stewart   FAIR      51  31  46 W6        30.08R
Statesboro     FAIR      47  32  57 NW7       30.10R
Sylvania       FAIR      47  36  64 NW7       30.11R
Claxton        FAIR      48  36  63 W5        30.11R

...CSRA, Central and far Southeast Georgia...

CITY           SKY/WX    TMP DP  RH WIND       PRES   REMARKS
Thomson        FAIR      45  32  60 N7        30.15R
Augusta-Bush   FAIR      51  32  48 NW10      30.09R
Augusta-Daniel FAIR      51  31  46 W9        30.09R
Swainsboro     FAIR      45  36  70 NW3       30.13R
Vidalia        FAIR      52  34  50 NW9       30.12R
Eastman        FAIR      50  24  35 NW5       30.17R
Hazlehurst     FAIR      52  23  32 CALM      30.12R
Alma           FAIR      53  32  44 NW8       30.13R
Waycross       FAIR      52  28  40 NW8       30.13R
Jesup          NOT AVBL
Baxley         FAIR      50  32  50 NW5       30.12R
Brunswick      FAIR      55  30  38 W8        30.10R
Saint Simons   FAIR      56  32  40 NW7       30.09R

$$

SCZ027-028-034-036>038-045-046-048>050-GAZ119-141-240500-
...Lake and Supplemental Coastal Observations...

STATION/POSITION TIME  TEMP    WIND        PRES    WAVE   SWELL
                       AIR SEA DIR/SP/G            HT/PER HT/PER/DIR
                 (UTC) (F)     (DEG/KT/KT) (MB)    (FT/S) (FT/S/D)
Winyah Bay       0245   58     280/  8     1016.0
Lake Murray      0320   51     280/ 13/ 20 1016.3
ACE Basin NERRS  0245   55     270/  2     1017.0
Fort Pulaski     0342   56 48  310/ 12/ 15 1018.4R
Sapelo Island    0300   54     290/  6     1018.0

$$

ANZ835-935-AMZ111-154-330-350-352-354-370-450-454-472-240500-
...C-MAN and Buoy Observations...

STATION/POSITION TIME  TEMP    WIND        PRES    WAVE   SWELL
                       AIR SEA DIR/SP/G            HT/PER HT/PER/DIR
                 (UTC) (F)     (DEG/KT/KT) (MB)    (FT/S) (FT/S/D)
Buoy 41004       0350   64 69  290/ 21/ 27 1016.8R   6/ 5   2/130/ 9
Buoy 41008       0350   53 50  290/  8/  8 1018.1R   3/ 7   2/110/ 7
Folly Beach CMAN 0300   56     270/  4/  8 1017.5R
Capers Nearshore 0308   52 53  290/ 10/ 12 1016.4R
Fripp Nearshore  0308   51 48  300/  8/ 12 1016.8R


STATION/POSITION TIME  TEMP    WIND        PRES    WAVE   SWELL
                       AIR SEA DIR/SP/G            HT/PER HT/PER/DIR
                 (UTC) (F)     (DEG/KT/KT) (MB)    (FT/S) (FT/S/D)
5E St. Marys GA  0330      51                N/A     2/ 6
Frying Pan Buoy  0350   61 63  280/ 19/ 23 1014.9R   7/ 8   5/190/ 8
Buoy 41025       0400   65 70  270/ 23/ 31 1012.2
Cape Lookout NC  0300          270/ 15/ 17 1013.1R
Buoy 41002       0350   71 70  230/ 16/ 17 1015.8R   7/ 7   3/300/17
Buoy 41010       NOT AVBL
St Augustine FL  0400   61 53  290/  4/  5 1019.5R


$$



USA.gov is the U.S. government's official web portal to all federal, state and local government web resources and services.